カタログに戻る

STARLINK-34135

運用中通信VLEO
NORAD 63964·PAYLOAD·🇺🇸 United States

打ち上げ May 13, 2025 から Cape Canaveral Space Force Station

Loading…

次のパス (今後24時間)

TLE

最新Source: CelesTrak SupGP

元期: Sep 14, 2026, 21:43 UTC

1 63964C 25099N   26257.90534722 -.00013567  00000+0 -49129-3 0  2575
2 63964  42.9997 187.5437 0001429 261.8865 159.5679 15.27591622    10

AllMySatでSTARLINK-34135をリアルタイム追跡

Download on the App Store